Change the Weather History Date:

Tuesday, August 13, 2013

  Actual Average (KEVV) Record (KEVV)
Temperature  
Mean Temperature 69 °F 77 °F  
Max Temperature 78 °F 88 °F 99 °F (2010)
Min Temperature 60 °F 66 °F 46 °F (1964)
Degree Days  
Heating Degree Days 0 0  
Month to date heating degree days 0  
Since 1 June heating degree days 6  
Since 1 July heating degree days 0  
Cooling Degree Days 4 12  
Month to date cooling degree days 159  
Year to date cooling degree days 995  
Since 1 June cooling degree days 860  
Growing Degree Days 19 (Base 50)    
Moisture  
Dew Point 64 °F    
Average Humidity 80    
Maximum Humidity 100    
Minimum Humidity 61    
Precipitation  
Precipitation 0.00 in 0.11 in 0.97 in (1906)
Month to date precipitation 1.24  
Year to date precipitation 29.18  
Snow  
Snow 0.00 in 0.00 in - ()
Month to date snowfall 0.0  
Since 1 June snowfall 0.0  
Since 1 July snowfall 0.0  
Snow Depth -    
Sea Level Pressure  
Sea Level Pressure 30.00 in    
Wind  
Wind Speed 5 mph (North)    
Max Wind Speed 13 mph    
Max Gust Speed 16 mph    
Visibility 8 miles    
Events Rain    
T = Trace of Precipitation, MM = Missing Value Source: NWS Daily Summary

Daily Weather History Graph

Daily Weather History Graph

Search for Another Location

Airport or City:

Trip Planner

Search our weather history database for the weather conditions in past years. The results will help you decide how hot, cold, wet, or windy it might be!

Date:

Astronomy

Aug. 13, 2013 Rise Set
Actual Time 6:05 AM CDT 7:49 PM CDT
Civil Twilight 5:36 AM CDT 8:17 PM CDT
Nautical Twilight 5:01 AM CDT 8:52 PM CDT
Astronomical Twilight 4:25 AM CDT 9:28 PM CDT
Moon 12:54 PM CDT (8/13) 11:29 PM CDT (8/13)
Length of Visible Light 14h 41m
Length of Day
13h 44m
Waxing Crescent, 42% of the Moon is Illuminated
Aug 13
Waxing Crescent
Aug 14
First Quarter
Aug 20
Full
Aug 28
Last Quarter
Sep 5
New

Hourly Weather History & Observations

Time (CDT) Temp. Dew Point Humidity Pressure Visibility Wind Dir Wind Speed Gust Speed Precip Events Conditions
12:15 AM 71.6 °F 71.6 °F 100% 29.94 in 7.0 mi West 5.8 mph - N/A   Scattered Clouds
12:35 AM 71.6 °F 71.6 °F 100% 29.93 in 7.0 mi West 6.9 mph - N/A Rain Light Rain
12:55 AM 71.6 °F 71.6 °F 100% 29.92 in 7.0 mi Calm Calm - N/A Rain Light Rain
1:15 AM 71.6 °F 71.6 °F 100% 29.93 in 7.0 mi Calm Calm - N/A   Mostly Cloudy
1:35 AM 69.8 °F 69.8 °F 100% 29.92 in 7.0 mi Calm Calm - N/A   Scattered Clouds
1:55 AM 69.8 °F 69.8 °F 100% 29.92 in 7.0 mi Calm Calm - N/A   Scattered Clouds
2:15 AM 68.0 °F 68.0 °F 100% 29.92 in 5.0 mi Calm Calm - N/A   Clear
2:35 AM 68.0 °F 68.0 °F 100% 29.91 in 10.0 mi NW 3.5 mph - N/A   Clear
2:55 AM 68.0 °F 68.0 °F 100% 29.92 in 7.0 mi WNW 3.5 mph - N/A   Clear
3:15 AM 68.0 °F 68.0 °F 100% 29.91 in 7.0 mi WNW 3.5 mph - N/A   Clear
3:35 AM 68.0 °F 68.0 °F 100% 29.91 in 7.0 mi West 3.5 mph - N/A   Clear
3:55 AM 68.0 °F 68.0 °F 100% 29.91 in 7.0 mi WNW 3.5 mph - N/A   Clear
4:15 AM 66.2 °F 66.2 °F 100% 29.92 in 5.0 mi WNW 4.6 mph - N/A   Clear
4:35 AM 66.2 °F 66.2 °F 100% 29.92 in 5.0 mi NW 3.5 mph - N/A   Clear
4:55 AM 66.2 °F 66.2 °F 100% 29.92 in 5.0 mi WNW 3.5 mph - N/A   Clear
5:15 AM 66.2 °F 66.2 °F 100% 29.93 in 5.0 mi WNW 3.5 mph - N/A   Clear
5:35 AM 66.2 °F 66.2 °F 100% 29.93 in 5.0 mi NW 3.5 mph - N/A   Clear
5:55 AM 66.2 °F 66.2 °F 100% 29.93 in 3.0 mi NW 4.6 mph - N/A   Clear
6:15 AM 66.2 °F 66.2 °F 100% 29.94 in 4.0 mi NW 3.5 mph - N/A   Clear
6:35 AM 66.2 °F 66.2 °F 100% 29.95 in 4.0 mi NW 3.5 mph - N/A   Clear
6:55 AM 68.0 °F 68.0 °F 100% 29.95 in 4.0 mi NW 3.5 mph - N/A   Clear
7:15 AM 68.0 °F 68.0 °F 100% 29.96 in 5.0 mi NNW 6.9 mph - N/A   Clear
7:35 AM 69.8 °F 68.0 °F 94% 29.96 in 5.0 mi NNW 4.6 mph - N/A   Clear
7:55 AM 69.8 °F 68.0 °F 94% 29.96 in 5.0 mi North 5.8 mph - N/A   Clear
8:15 AM 71.6 °F 69.8 °F 94% 29.97 in 5.0 mi North 5.8 mph - N/A   Clear
8:35 AM 71.6 °F 68.0 °F 88% 29.98 in 10.0 mi North 3.5 mph - N/A   Clear
8:55 AM 73.4 °F 66.2 °F 78% 29.98 in 10.0 mi North 5.8 mph - N/A   Clear
9:15 AM 73.4 °F 66.2 °F 78% 29.99 in 10.0 mi NNE 6.9 mph - N/A   Clear
9:35 AM 73.4 °F 66.2 °F 78% 30.00 in 10.0 mi North 8.1 mph - N/A   Clear
9:55 AM 73.4 °F 66.2 °F 78% 30.01 in 10.0 mi North 5.8 mph - N/A   Clear
10:15 AM 73.4 °F 66.2 °F 78% 30.01 in 10.0 mi North 6.9 mph - N/A   Clear
10:35 AM 73.4 °F 66.2 °F 78% 30.02 in 10.0 mi North 9.2 mph - N/A   Clear
10:55 AM 75.2 °F 66.2 °F 73% 30.02 in 10.0 mi NNE 9.2 mph - N/A   Clear
11:15 AM 75.2 °F 66.2 °F 73% 30.02 in 10.0 mi NNW 10.4 mph - N/A   Clear
11:35 AM 77.0 °F 66.2 °F 69% 30.02 in 10.0 mi North 6.9 mph - N/A   Clear
11:55 AM 75.2 °F 66.2 °F 73% 30.02 in 10.0 mi North 8.1 mph - N/A   Clear
12:15 PM 77.0 °F 66.2 °F 69% 30.02 in 10.0 mi North 5.8 mph - N/A   Clear
12:35 PM 78.8 °F 66.2 °F 65% 30.02 in 10.0 mi North 8.1 mph - N/A   Clear
12:55 PM 78.8 °F 66.2 °F 65% 30.02 in 10.0 mi North 6.9 mph - N/A   Scattered Clouds
1:15 PM 78.8 °F 68.0 °F 69% 30.03 in 10.0 mi NNW 6.9 mph - N/A   Scattered Clouds
1:35 PM 78.8 °F 66.2 °F 65% 30.03 in 10.0 mi North 9.2 mph - N/A   Scattered Clouds
1:55 PM 78.8 °F 66.2 °F 65% 30.04 in 10.0 mi North 8.1 mph - N/A   Scattered Clouds
2:15 PM 77.0 °F 64.4 °F 65% 30.04 in 10.0 mi NNE 11.5 mph - N/A   Scattered Clouds
2:35 PM 77.0 °F 64.4 °F 65% 30.04 in 10.0 mi North 11.5 mph 16.1 mph N/A   Scattered Clouds
2:55 PM 78.8 °F 64.4 °F 61% 30.03 in 7.0 mi NNE 12.7 mph 16.1 mph N/A   Clear
3:15 PM 78.8 °F 64.4 °F 61% 30.03 in 7.0 mi North 11.5 mph - N/A   Clear
3:35 PM 77.0 °F 62.6 °F 61% 30.03 in 7.0 mi North 10.4 mph - N/A   Clear
3:55 PM 75.2 °F 64.4 °F 69% 30.03 in 10.0 mi North 9.2 mph - N/A   Scattered Clouds
4:15 PM 77.0 °F 64.4 °F 65% 30.03 in 10.0 mi North 6.9 mph - N/A   Clear
4:35 PM 77.0 °F 64.4 °F 65% 30.02 in 10.0 mi NNE 6.9 mph - N/A   Clear
4:55 PM 77.0 °F 62.6 °F 61% 30.01 in 10.0 mi North 8.1 mph - N/A   Clear
5:15 PM 77.0 °F 62.6 °F 61% 30.01 in 10.0 mi North 8.1 mph - N/A   Clear
5:35 PM 77.0 °F 62.6 °F 61% 30.01 in 10.0 mi NNE 9.2 mph - N/A   Scattered Clouds
5:55 PM 75.2 °F 60.8 °F 61% 30.01 in 10.0 mi North 8.1 mph - N/A   Clear
6:55 PM 73.4 °F 60.8 °F 65% 30.02 in 10.0 mi North 6.9 mph - N/A   Clear
7:15 PM 71.6 °F 60.8 °F 69% 30.02 in 10.0 mi North 6.9 mph - N/A   Clear
7:35 PM 69.8 °F 59.0 °F 68% 30.03 in 10.0 mi North 5.8 mph - N/A   Clear
7:55 PM 69.8 °F 59.0 °F 68% 30.04 in 10.0 mi North 4.6 mph - N/A   Clear
8:15 PM 68.0 °F 59.0 °F 73% 30.05 in 10.0 mi North 6.9 mph - N/A   Clear
8:35 PM 68.0 °F 57.2 °F 68% 30.05 in 10.0 mi North 6.9 mph - N/A   Clear
8:55 PM 66.2 °F 57.2 °F 73% 30.07 in 10.0 mi NNE 5.8 mph - N/A   Clear
9:15 PM 66.2 °F 57.2 °F 73% 30.08 in 10.0 mi NNE 6.9 mph - N/A   Clear
9:35 PM 64.4 °F 55.4 °F 73% 30.09 in 10.0 mi NNE 9.2 mph - N/A   Clear
9:55 PM 64.4 °F 55.4 °F 73% 30.10 in 10.0 mi NNE 5.8 mph - N/A   Clear
10:15 PM 64.4 °F 55.4 °F 73% 30.10 in 10.0 mi NE 6.9 mph - N/A   Clear
10:35 PM 62.6 °F 53.6 °F 72% 30.11 in 10.0 mi NNE 8.1 mph - N/A   Clear
10:55 PM 62.6 °F 53.6 °F 72% 30.11 in 10.0 mi NNE 8.1 mph - N/A   Clear
11:15 PM 62.6 °F 53.6 °F 72% 30.11 in 10.0 mi NE 5.8 mph - N/A   Clear
11:35 PM 60.8 °F 53.6 °F 77% 30.12 in 10.0 mi NE 4.6 mph - N/A   Clear
11:55 PM 60.8 °F 53.6 °F 77% 30.13 in 10.0 mi NE 3.5 mph - N/A   Clear